• In Netherlands
  • List of Countries
  • For 7 days
  • Water Temperature
  • Satellite Maps
  • Weather Map
  • Weather Widgets
  • user-avatar
    Login

    Hourly Weather Ondjiwa

    Today, 22 January, Sunday

    Time Temperature Precipitation Wind Pressure Humidity
    00:00 +27°C° 0 mm 2 mps 666 mmHg 46%
    01:00 +26°C° 0 mm 2 mps 666 mmHg 50%
    02:00 +26°C° 0 mm 2 mps 666 mmHg 52%
    03:00 +25°C° 0 mm 2 mps 666 mmHg 55%
    04:00 +25°C° 0 mm 3 mps 666 mmHg 57%
    05:00 +25°C° 0 mm 3 mps 666 mmHg 57%
    06:00 +25°C° 0 mm 3 mps 667 mmHg 57%
    07:00 +26°C° 0 mm 2 mps 667 mmHg 55%
    08:00 +28°C° 0 mm 3 mps 667 mmHg 49%
    09:00 +30°C° 0 mm 3 mps 668 mmHg 42%
    10:00 +33°C° 0 mm 4 mps 668 mmHg 36%
    11:00 +33°C° 0 mm 3 mps 668 mmHg 34%
    12:00 +34°C° 0 mm 3 mps 667 mmHg 32%
    13:00 +34°C° 0 mm 3 mps 667 mmHg 30%
    14:00 +34°C° 0 mm 3 mps 667 mmHg 30%
    15:00 +35°C° 0 mm 2 mps 666 mmHg 29%
    16:00 +35°C° 0 mm 2 mps 666 mmHg 28%
    17:00 +32°C° 0 mm 2 mps 666 mmHg 31%
    18:00 +31°C° 0 mm 2 mps 666 mmHg 35%
    19:00 +30°C° 0 mm 2 mps 666 mmHg 38%
    20:00 +28°C° 0.2 mm 2 mps 666 mmHg 46%
    21:00 +27°C° 0.2 mm 2 mps 666 mmHg 54%
    22:00 +26°C° 0.2 mm 2 mps 666 mmHg 63%
    23:00 +25°C° 0.3 mm 2 mps 666 mmHg 67%

    Tomorrow, 23 January, Monday

    Time Temperature Precipitation Wind Pressure Humidity
    00:00 +25°C° 0.3 mm 1 mps 666 mmHg 71%
    01:00 +24°C° 0.3 mm 1 mps 666 mmHg 75%
    02:00 +24°C° 0.6 mm 1 mps 666 mmHg 75%
    03:00 +24°C° 0.6 mm 1 mps 666 mmHg 76%
    04:00 +24°C° 0.6 mm 1 mps 666 mmHg 76%
    05:00 +24°C° 1.7 mm 2 mps 666 mmHg 76%
    06:00 +24°C° 1.7 mm 2 mps 666 mmHg 75%
    07:00 +24°C° 1.7 mm 2 mps 667 mmHg 75%
    08:00 +26°C° 0.2 mm 2 mps 667 mmHg 70%
    09:00 +27°C° 0.2 mm 3 mps 667 mmHg 65%
    10:00 +28°C° 0.2 mm 3 mps 667 mmHg 60%
    11:00 +29°C° 0.1 mm 3 mps 667 mmHg 55%
    12:00 +30°C° 0.1 mm 2 mps 667 mmHg 50%
    13:00 +32°C° 0.1 mm 2 mps 666 mmHg 45%
    14:00 +32°C° 0.2 mm 2 mps 666 mmHg 44%
    15:00 +33°C° 0.2 mm 3 mps 665 mmHg 44%
    16:00 +33°C° 0.2 mm 3 mps 664 mmHg 44%
    17:00 +31°C° 0.2 mm 2 mps 664 mmHg 48%
    18:00 +30°C° 0.2 mm 2 mps 664 mmHg 53%
    19:00 +28°C° 0.2 mm 1 mps 664 mmHg 57%
    20:00 +28°C° 1.5 mm 1 mps 665 mmHg 63%
    21:00 +27°C° 1.5 mm 1 mps 665 mmHg 68%
    22:00 +26°C° 1.5 mm 2 mps 666 mmHg 73%
    23:00 +25°C° 2.8 mm 2 mps 665 mmHg 76%

    Day after tomorrow, 24 January, Tuesday

    Time Temperature Precipitation Wind Pressure Humidity
    00:00 +25°C° 2.8 mm 2 mps 665 mmHg 78%
    01:00 +24°C° 2.8 mm 2 mps 665 mmHg 80%
    02:00 +24°C° 1.8 mm 2 mps 665 mmHg 81%
    03:00 +24°C° 1.8 mm 2 mps 665 mmHg 83%
    04:00 +22°C° 1.8 mm 3 mps 665 mmHg 84%
    05:00 +23°C° 0.4 mm 2 mps 665 mmHg 83%
    06:00 +23°C° 0.4 mm 2 mps 665 mmHg 83%
    07:00 +23°C° 0.4 mm 2 mps 666 mmHg 82%
    08:00 +24°C° 0.1 mm 3 mps 666 mmHg 77%
    09:00 +24°C° 0.1 mm 3 mps 666 mmHg 72%
    10:00 +25°C° 0.1 mm 3 mps 666 mmHg 67%
    11:00 +26°C° 0.1 mm 4 mps 666 mmHg 61%
    12:00 +28°C° 0.1 mm 4 mps 666 mmHg 55%
    13:00 +29°C° 0.1 mm 4 mps 666 mmHg 49%
    14:00 +28°C° 0.8 mm 4 mps 665 mmHg 56%
    15:00 +27°C° 0.8 mm 3 mps 664 mmHg 63%
    16:00 +26°C° 0.8 mm 3 mps 664 mmHg 71%
    17:00 +25°C° 2.1 mm 3 mps 664 mmHg 76%
    18:00 +24°C° 2.1 mm 3 mps 664 mmHg 81%
    19:00 +22°C° 2.1 mm 3 mps 664 mmHg 86%
    20:00 +21°C° 3.9 mm 4 mps 665 mmHg 87%
    21:00 +21°C° 3.9 mm 4 mps 665 mmHg 88%
    22:00 +20°C° 3.9 mm 5 mps 666 mmHg 89%
    23:00 +20°C° 2.2 mm 6 mps 666 mmHg 89%

    25 January, Wednesday

    Time Temperature Precipitation Wind Pressure Humidity
    00:00 +20°C° 2.2 mm 6 mps 665 mmHg 89%
    01:00 +19°C° 2.2 mm 6 mps 665 mmHg 89%
    02:00 +19°C° 0.7 mm 6 mps 665 mmHg 89%
    03:00 +19°C° 0.7 mm 5 mps 665 mmHg 88%
    04:00 +19°C° 0.7 mm 5 mps 664 mmHg 88%
    05:00 +19°C° 0.4 mm 5 mps 665 mmHg 88%
    06:00 +19°C° 0.4 mm 5 mps 665 mmHg 87%
    07:00 +19°C° 0.4 mm 4 mps 666 mmHg 87%
    08:00 +19°C° 0.2 mm 4 mps 666 mmHg 86%
    09:00 +19°C° 0.2 mm 4 mps 667 mmHg 84%
    10:00 +19°C° 0.2 mm 4 mps 667 mmHg 83%
    11:00 +20°C° 0.1 mm 4 mps 667 mmHg 80%
    12:00 +21°C° 0.1 mm 4 mps 667 mmHg 77%
    13:00 +21°C° 0.1 mm 4 mps 667 mmHg 73%
    14:00 +21°C° 0.1 mm 4 mps 666 mmHg 73%
    15:00 +21°C° 0.1 mm 3 mps 666 mmHg 73%
    16:00 +21°C° 0.1 mm 3 mps 666 mmHg 73%
    17:00 +21°C° 0 mm 3 mps 666 mmHg 75%
    18:00 +20°C° 0 mm 2 mps 666 mmHg 76%
    19:00 +20°C° 0 mm 2 mps 666 mmHg 78%
    20:00 +21°C° 0 mm 1 mps 667 mmHg 79%
    21:00 +20°C° 0 mm 1 mps 667 mmHg 80%
    22:00 +20°C° 0 mm 1 mps 667 mmHg 81%
    23:00 +20°C° 0 mm 1 mps 667 mmHg 79%

    26 January, Thursday

    Time Temperature Precipitation Wind Pressure Humidity
    00:00 +20°C° 0 mm 1 mps 667 mmHg 78%
    01:00 +20°C° 0 mm 1 mps 667 mmHg 76%
    02:00 +20°C° 0 mm 1 mps 666 mmHg 76%
    03:00 +20°C° 0 mm 1 mps 666 mmHg 76%
    04:00 +18°C° 0 mm 2 mps 666 mmHg 75%
    05:00 +20°C° 0 mm 1 mps 666 mmHg 73%
    06:00 +20°C° 0 mm 1 mps 667 mmHg 71%
    07:00 +20°C° 0 mm 1 mps 667 mmHg 69%
    08:00 +22°C° 0 mm 1 mps 668 mmHg 61%
    09:00 +24°C° 0 mm 2 mps 668 mmHg 52%
    10:00 +26°C° 0 mm 2 mps 668 mmHg 44%
    11:00 +28°C° 0 mm 2 mps 668 mmHg 39%
    12:00 +29°C° 0 mm 3 mps 668 mmHg 34%
    13:00 +31°C° 0 mm 3 mps 667 mmHg 30%
    14:00 +31°C° 0 mm 3 mps 667 mmHg 29%
    15:00 +33°C° 0 mm 3 mps 666 mmHg 28%
    16:00 +33°C° 0 mm 3 mps 666 mmHg 27%
    17:00 +31°C° 0 mm 2 mps 666 mmHg 30%
    18:00 +29°C° 0 mm 2 mps 666 mmHg 33%
    19:00 +27°C° 0 mm 1 mps 666 mmHg 37%
    20:00 +27°C° 0 mm 2 mps 666 mmHg 37%
    21:00 +26°C° 0 mm 2 mps 667 mmHg 37%
    22:00 +25°C° 0 mm 2 mps 667 mmHg 38%
    23:00 +24°C° 0 mm 3 mps 667 mmHg 40%

    27 January, Friday

    Time Temperature Precipitation Wind Pressure Humidity
    00:00 +22°C° 0 mm 3 mps 666 mmHg 42%
    01:00 +21°C° 0 mm 3 mps 666 mmHg 45%
    02:00 +20°C° 0 mm 3 mps 666 mmHg 47%
    03:00 +20°C° 0 mm 3 mps 666 mmHg 49%
    04:00 +19°C° 0 mm 2 mps 666 mmHg 51%
    05:00 +20°C° 0 mm 2 mps 666 mmHg 50%
    06:00 +20°C° 0 mm 2 mps 667 mmHg 49%
    07:00 +20°C° 0 mm 2 mps 667 mmHg 49%
    08:00 +24°C° 0 mm 2 mps 668 mmHg 41%
    09:00 +26°C° 0 mm 2 mps 668 mmHg 33%
    10:00 +28°C° 0 mm 2 mps 668 mmHg 26%
    11:00 +30°C° 0 mm 2 mps 668 mmHg 22%
    12:00 +32°C° 0 mm 2 mps 668 mmHg 18%
    13:00 +34°C° 0 mm 3 mps 667 mmHg 13%
    14:00 +35°C° 0 mm 3 mps 667 mmHg 13%
    15:00 +35°C° 0 mm 3 mps 666 mmHg 12%
    16:00 +35°C° 0 mm 3 mps 666 mmHg 12%
    17:00 +33°C° 0 mm 3 mps 665 mmHg 16%
    18:00 +30°C° 0 mm 2 mps 665 mmHg 20%
    19:00 +27°C° 0 mm 2 mps 665 mmHg 24%
    20:00 +27°C° 0 mm 2 mps 665 mmHg 23%
    21:00 +26°C° 0 mm 3 mps 666 mmHg 22%
    22:00 +25°C° 0 mm 4 mps 666 mmHg 22%
    23:00 +23°C° 0 mm 4 mps 666 mmHg 28%
    Show more